This demonstration page uses our WeatherBlox Daily Observations layout. Learn more.

Left ArrowRight Arrow

38.80484, -77.04692

Hourly Observations for August 22, 2022

Temp ( °F °C ) Dew Point ( °F °C ) Humidity (%) Winds ( mph kmh ) Pressure ( in mb ) Visibility ( mi km ) Precip ( " mm )
12:52 am 00:52 Mostly Cloudy 74 23.3 72 22.2 94 94 Calm 29.97 1015 10 16 0.00 0.00
1:52 am 01:52 Cloudy 74 23.3 72 22.2 94 94 SE 6 9 29.96 1015 10 16 0.00 0.00
2:52 am 02:52 Cloudy with Light Rain 74 23.3 72 22.2 94 94 S 7 11 29.95 1014 10 16 0.01 0.13
3:52 am 03:52 Mostly Cloudy 74 23.3 72 22.2 94 94 SSE 8 13 29.93 1014 10 16 0.03 0.76
4:26 am 04:26 Cloudy 74 23.3 72 22.2 94 94 S 7 11 29.93 1013 10 16 0.00 0.00
4:36 am 04:36 Cloudy 74 23.3 72 22.2 94 94 SSW 6 9 29.93 1013 10 16 0.00 0.00
4:52 am 04:52 Cloudy 74 23.3 72 22.2 94 94 S 7 11 29.92 1013 10 16 0.00 0.00
5:52 am 05:52 Mostly Cloudy 74 23.3 73 22.8 97 97 SSW 9 15 29.92 1013 10 16 0.00 0.00
6:21 am 06:21 Cloudy 75 23.9 72 22.2 90 90 S 8 13 29.92 1013 10 16 0.00 0.00
6:41 am 06:41 Cloudy 75 23.9 72 22.2 90 90 SSW 8 13 29.92 1013 10 16 0.00 0.00
6:52 am 06:52 Cloudy 75 23.9 72 22.2 90 90 S 7 11 29.92 1013 10 16 0.00 0.00
7:34 am 07:34 Cloudy 75 23.9 73 22.8 94 94 S 9 15 29.92 1013 10 16 0.00 0.00
7:55 am 07:55 Cloudy 75 23.9 72 22.2 90 90 SSW 7 11 29.92 1013 10 16 0.00 0.00
8:43 am 08:43 Cloudy 75 23.9 73 22.8 94 94 SW 7 11 29.92 1013 10 16 0.00 0.00
8:52 am 08:52 Cloudy 76 24.4 73 22.8 91 91 SW 7 11 29.92 1013 10 16 0.00 0.00
9:09 am 09:09 Mostly Cloudy 76 24.4 73 22.8 91 91 SW 6 9 29.92 1013 10 16 0.00 0.00
9:25 am 09:25 Mostly Cloudy 76 24.4 72 22.2 88 88 SSW 7 11 29.91 1013 10 16 0.00 0.00
9:46 am 09:46 Cloudy 77 25 73 23 89 89 S 9 15 29.92 1013 10 16 0.00 0.00
9:52 am 09:52 Cloudy 76 24.4 73 22.8 91 91 S 8 13 29.91 1013 10 16 0.00 0.00
9:56 am 09:56 Cloudy 76 24.4 73 22.8 91 91 S 9 15 29.92 1013 10 16 0.00 0.00
10:21 am 10:21 Cloudy 76 24.4 73 22.8 91 91 S 9 15 29.92 1013 10 16 0.00 0.00
10:24 am 10:24 Cloudy 77 25 73 22.8 88 88 S 9 15 29.92 1013 10 16 0.00 0.00
10:52 am 10:52 Mostly Cloudy 77 25 73 22.8 88 88 S 9 15 29.92 1013 10 16 0.00 0.00
11:24 am 11:24 Mostly Cloudy 78 25.6 73 22.8 85 85 S 10 17 29.92 1013 10 16 0.00 0.00
11:45 am 11:45 Mostly Cloudy 79 26.1 73 22.8 82 82 S 10 17 29.92 1013 10 16 0.00 0.00
11:52 am 11:52 Mostly Cloudy 79 26.1 73 22.8 82 82 S 9 15 29.91 1013 10 16 0.00 0.00
12:17 pm 12:17 Mostly Cloudy 79 26.1 73 22.8 82 82 S 10 17 29.90 1012 10 16 0.00 0.00
12:49 pm 12:49 Mostly Cloudy 79 26 72 22 79 79 S 10 17 29.90 1012 10 16 0.00 0.00
12:52 pm 12:52 Mostly Cloudy 79 26.1 72 22.2 79 79 S 9 15 29.89 1012 10 16 0.00 0.00
1:09 pm 13:09 Mostly Cloudy 80 26.7 73 22.8 79 79 SSE 7 11 29.89 1012 10 16 0.00 0.00
1:42 pm 13:42 Mostly Cloudy 80 26.7 73 22.8 79 79 S 6 9 29.88 1012 10 16 0.00 0.00
1:52 pm 13:52 Mostly Cloudy 80 26.7 72 22.2 76 76 S 9 15 29.88 1012 10 16 0.00 0.00
2:07 pm 14:07 Mostly Cloudy 82 27.8 71 21.7 69 69 S 12 19 29.87 1011 10 16 0.00 0.00
2:52 pm 14:52 Mostly Cloudy 84 28.9 71 21.7 65 65 WSW 10 17 29.85 1011 10 16 0.00 0.00
3:52 pm 15:52 Mostly Cloudy 84 28.9 70 21.1 63 63 SW 10 17 29.83 1010 10 16 0.00 0.00
4:52 pm 16:52 Partly Cloudy 85 29.4 70 21.1 61 61 SSW 9 15 29.81 1009 10 16 0.00 0.00
5:52 pm 17:52 Mostly Cloudy 83 28.3 70 21.1 65 65 SSW 9 15 29.82 1010 10 16 0.00 0.00
6:52 pm 18:52 Mostly Cloudy 83 28.3 70 21.1 65 65 SW 6 9 29.81 1010 10 16 0.00 0.00
7:29 pm 19:29 Mostly Cloudy 79 26.1 67 19.4 67 67 N 9 15 29.82 1010 10 16 0.00 0.00
7:52 pm 19:52 Mostly Cloudy 78 25.6 67 19.4 69 69 NNE 5 7 29.83 1010 10 16 0.00 0.00
8:52 pm 20:52 Cloudy 79 26.1 71 21.7 77 77 NW 5 7 29.84 1011 10 16 0.00 0.00
9:52 pm 21:52 Mostly Cloudy 78 25.6 67 19.4 69 69 W 5 7 29.85 1011 10 16 0.00 0.00
10:52 pm 22:52 Mostly Cloudy 76 24.4 70 21.1 82 82 Calm 29.86 1011 10 16 0.00 0.00
11:52 pm 23:52 Partly Cloudy 77 25 67 19.4 71 71 W 6 9 29.86 1011 10 16 0.00 0.00

Powered by AerisWeather